London-Corbin, KY

5:05 PM EST on December 05, 2019 (GMT -0500)
London-Corbin / McKee

Weather History for KLOZ - June, 2019

Change the Weather History Date:

Saturday, June 1, 2019

  Actual Average Record
Temperature  
Mean Temperature 68 °F 69 °F  
Max Temperature 82 °F 80 °F 89 °F (2011)
Min Temperature 54 °F 58 °F 34 °F (1966)
Degree Days  
Heating Degree Days 0 1  
Month to date heating degree days 0 1  
Since 1 June heating degree days 0 1  
Since 1 July heating degree days 4024 4197  
Cooling Degree Days 3 5  
Month to date cooling degree days 3 5  
Year to date cooling degree days 181 119  
Since 1 June cooling degree days 3 5  
Growing Degree Days 18 (Base 50)    
Moisture  
Dew Point 58 °F    
Average Humidity 75    
Maximum Humidity 100    
Minimum Humidity 49    
Precipitation  
Precipitation 0.00 in 0.17 in 1.22 in (1967)
Month to date precipitation 0.00 0.17  
Sea Level Pressure  
Sea Level Pressure 29.92 in    
Wind  
Wind Speed 2 mph (SW)    
Max Wind Speed 9 mph    
Max Gust Speed 13 mph    
Visibility 6 miles    
Events Fog    
T = Trace of Precipitation, MM = Missing Value Source: NWS Daily Summary

Daily Weather History Graph

Daily Weather History Graph

Search for Another Location

Airport or City:

Astronomy

Jun. 01, 2019 Rise Set
Actual Time 6:18 AM EDT 8:50 PM EDT
Civil Twilight 5:47 AM EDT 9:20 PM EDT
Nautical Twilight 5:10 AM EDT 9:58 PM EDT
Astronomical Twilight 4:28 AM EDT 10:40 PM EDT
Moon 5:18 AM EDT (6/1) 7:06 PM EDT (6/1)
Length of Visible Light 15h 33m
Length of Day
14h 32m
Waning Crescent, 4% of the Moon is Illuminated
Jun 1
Waning Crescent
Jun 3
New
Jun 10
First Quarter
Jun 17
Full
Jun 25
Last Quarter

Hourly Weather History & Observations

Time (EDT) Temp. Heat Index Dew Point Humidity Pressure Visibility Wind Dir Wind Speed Gust Speed Precip Events Conditions
12:53 AM 60.1 °F - 59.0 °F 96% 29.92 in 10.0 mi Calm Calm - N/A   Clear
1:53 AM 57.9 °F - 57.9 °F 100% 29.92 in 5.0 mi Calm Calm - N/A   Clear
2:53 AM 57.9 °F - 57.9 °F 100% 29.91 in 4.0 mi Calm Calm - N/A   Clear
3:53 AM 57.9 °F - 57.9 °F 100% 29.92 in 6.0 mi Calm Calm - N/A   Clear
4:36 AM 57.0 °F - 57.0 °F 100% 29.95 in 2.5 mi Calm Calm - N/A   Partly Cloudy
4:45 AM 55.9 °F - 55.9 °F 100% 29.95 in 1.2 mi Calm Calm - N/A   Partly Cloudy
4:53 AM 55.9 °F - 55.9 °F 100% 29.92 in 1.0 mi Calm Calm - N/A   Mist
5:00 AM 55.9 °F - 55.9 °F 100% 29.95 in 0.8 mi Calm Calm - N/A   Mist
5:03 AM 55.9 °F - 55.9 °F 100% 29.95 in 1.2 mi Calm Calm - N/A   Partly Cloudy
5:12 AM 55.9 °F - 55.9 °F 100% 29.95 in 2.5 mi Calm Calm - N/A   Partly Cloudy
5:20 AM 55.9 °F - 55.9 °F 100% 29.95 in 3.0 mi Calm Calm - N/A   Mostly Cloudy
5:35 AM 55.9 °F - 55.9 °F 100% 29.95 in 1.5 mi Calm Calm - N/A   Mostly Cloudy
5:44 AM 55.0 °F - 55.0 °F 100% 29.95 in 0.5 mi Calm Calm - N/A Fog Fog
5:53 AM 55.0 °F - 55.0 °F 100% 29.93 in 0.2 mi Calm Calm - N/A Fog Fog
6:45 AM 55.0 °F - 55.0 °F 100% 29.96 in 2.0 mi Calm Calm - N/A   Overcast
6:53 AM 55.0 °F - 55.0 °F 100% 29.94 in 1.5 mi North - - N/A   Mostly Cloudy
6:59 AM 55.0 °F - 55.0 °F 100% 29.97 in 3.0 mi North - - N/A   Mostly Cloudy
7:09 AM 55.0 °F - 55.0 °F 100% 29.97 in 2.0 mi Calm Calm - N/A   Scattered Clouds
7:17 AM 55.0 °F - 55.0 °F 100% 29.97 in 1.2 mi Calm Calm - N/A   Scattered Clouds
7:24 AM 55.9 °F - 55.9 °F 100% 29.97 in 3.0 mi Calm Calm - N/A   Partly Cloudy
7:53 AM 57.9 °F - 57.9 °F 100% 29.96 in 9.0 mi Calm Calm - N/A   Clear
8:53 AM 63.0 °F - 60.1 °F 90% 29.96 in 10.0 mi Calm Calm - N/A   Clear
9:53 AM 68.0 °F - 62.1 °F 81% 29.96 in 10.0 mi Calm Calm - N/A   Clear
10:53 AM 72.0 °F - 62.1 °F 71% 29.95 in 10.0 mi Variable 3.5 mph - N/A   Clear
11:53 AM 73.9 °F - 61.0 °F 64% 29.94 in 10.0 mi SSE 5.8 mph - N/A   Scattered Clouds
12:53 PM 77.0 °F - 60.1 °F 56% 29.93 in 10.0 mi Variable 5.8 mph - N/A   Scattered Clouds
1:53 PM 79.0 °F - 60.1 °F 52% 29.91 in 10.0 mi West 6.9 mph - N/A   Mostly Cloudy
2:53 PM 78.1 °F - 59.0 °F 52% 29.89 in 10.0 mi South 5.8 mph - N/A   Scattered Clouds
3:53 PM 79.0 °F - 59.0 °F 50% 29.88 in 10.0 mi SE 4.6 mph - N/A   Overcast
4:53 PM 81.0 °F 81.3 °F 59.0 °F 47% 29.88 in 10.0 mi Variable 4.6 mph - N/A   Scattered Clouds
5:53 PM 79.0 °F - 59.0 °F 50% 29.87 in 10.0 mi West 6.9 mph - N/A   Scattered Clouds
6:53 PM 79.0 °F - 59.0 °F 50% 29.86 in 10.0 mi West 5.8 mph - N/A   Clear
7:53 PM 78.1 °F - 59.0 °F 52% 29.85 in 10.0 mi West 5.8 mph - N/A   Clear
8:53 PM 73.9 °F - 60.1 °F 62% 29.85 in 10.0 mi Calm Calm - N/A   Clear
9:53 PM 68.0 °F - 62.1 °F 81% 29.85 in 10.0 mi Calm Calm - N/A   Clear
10:53 PM 66.0 °F - 62.1 °F 87% 29.87 in 10.0 mi Calm Calm - N/A   Clear
11:53 PM 64.9 °F - 62.1 °F 90% 29.86 in 10.0 mi Calm Calm - N/A   Clear